Location: Newark
(48.1383°N, 97.9933°W)
Time: 02:46:15
(UTC+00:00)

N. Korean satellite - Visible Passes

Search period start: 19 September 2020 00:00
Search period end: 29 September 2020 00:00
Orbit: 455 x 503 km, 97.2° (Epoch: 18 September)

Date Brightness Start Highest point End Pass type
(mag) Time Alt. Az. Time Alt. Az. Time Alt. Az.
19 Sep 9.9 11:07:39 10° NE 11:09:50 15° E 11:11:59 10° SE visible
22 Sep 9.5 11:22:24 10° NE 11:25:17 21° E 11:28:08 10° SE visible
23 Sep 10.2 10:57:49 10° ENE 10:59:02 11° E 11:00:14 10° ESE visible
25 Sep 8.8 11:37:23 10° NNE 11:40:42 31° E 11:43:56 10° SSE visible
26 Sep 9.8 11:12:06 10° NE 11:14:29 16° E 11:16:51 10° SE visible
28 Sep 7.8 11:52:30 10° NNE 11:56:03 47° E 11:59:30 10° S visible
